Flag for U.S.A. Weather past 2 weeks in Akron, Ohio, U.S.A.

Now
69 °F

Sunny.


Feels Like: 69 °F
Forecast: 42 / 69 °F
Wind: No wind

Location: Akron Fulton International Airport

Current Time: Sep 23, 2014 at 6:30:26 PM

Latest Report: Sep 23, 2014 at 5:54 PM


Visibility: 10 mi

Pressure: 30.33 "Hg

Humidity: 41%

Dew point: 44 °F

Location of AkronLocation

Historic Weather in Akron — Graph

°F

Akron temperature yesterday

Maximum temperature yesterday: 58 °F (at 4:54 PM)
Minimum temperature yesterday: 44 °F (at 11:54 PM)
Average temperature yesterday: 53 °F

Past Weeks' High & Low Weather Summary

 TemperatureHumidityPressure
High81 °F (Sep 10, 2:54 PM)97% (Sep 14, 4:04 AM)30.38 "Hg (Sep 14, 4:04 AM)
Low41 °F (Sep 23, 5:54 AM)35% (Sep 21, 2:54 PM)29.67 "Hg (Sep 21, 1:54 PM)
Average61 °F75%30.08 "Hg
* Reported Sep 8 4:54 PM — Sep 23 4:54 PM, Akron, Weather by CustomWeather, © 2014

Note: Actual official high and low records may vary slightly from our data, if they occured in-between our weather recording intervals... More about our weather records

Advertising

Akron weather history for previous 24 hours

 ConditionsComfort  
Time TempWeatherWind HumidityBarometerVisibility
4:54 PM
Sep 23
68 °FSunny.5 mph45%30.33 "Hg10 mi
3:54 PM68 °FSunny.9 mph45%30.34 "Hg10 mi
2:54 PM67 °FSunny.No wind45%30.35 "Hg10 mi
1:54 PM66 °FSunny.No wind50%30.36 "Hg10 mi
12:54 PM65 °FSunny.3 mph51%30.37 "Hg10 mi
11:54 AM62 °FSunny.3 mph56%30.38 "Hg10 mi
10:54 AM59 °FSunny.3 mph62%30.37 "Hg10 mi
9:54 AM55 °FSunny.3 mph72%30.37 "Hg10 mi
8:54 AM50 °FSunny.No wind80%30.36 "Hg9 mi
7:54 AM41 °FClear.No wind93%30.36 "Hg9 mi
6:54 AM41 °FFog.No wind93%30.34 "Hg4 mi
5:54 AM41 °FClear.No wind89%30.32 "Hg8 mi
4:54 AM42 °FClear.No wind89%30.31 "Hg10 mi
3:54 AM42 °FClear.No wind92%30.30 "Hg10 mi
2:54 AM42 °FClear.No wind92%30.29 "Hg10 mi
1:54 AM43 °FClear.No wind89%30.30 "Hg9 mi
12:54 AM44 °FClear.No wind89%30.29 "Hg10 mi
11:54 PM
Sep 22
44 °FClear.No wind89%30.29 "Hg9 mi
10:54 PM45 °FClear.No wind90%30.28 "Hg10 mi
9:54 PM46 °FClear.No wind83%30.27 "Hg10 mi
8:54 PM48 °FClear.No wind80%30.26 "Hg10 mi
7:54 PM52 °FSunny.No wind66%30.23 "Hg10 mi
6:54 PM56 °FPartly sunny.6 mph58%30.21 "Hg10 mi
Weather by CustomWeather, © 2014

See weather overviewHow to use our weather pages